sat.trackr.live / text

‹ back to catalog

STARLINK-35042

NORAD 65481 · 2025-195Z

PAYLOAD ACTIVE UNKNOWN

§ Identity

Operator
Country
US
Launch date
2025-09-03
Launch site
AFETR
Launch vehicle
Mass (kg)
RCS (m²)

Purposes: comms

External: N2YO · Heavens-Above · Gunter

§ Orbital elements

Epoch: 2026-05-25T00:39:25.421184Z

Period
93.85 min
Inclination
53.1569°
Eccentricity
0.0000566
Mean motion
15.34398721 rev/d
Perigee alt
462.3 km
Apogee alt
463.1 km
Semi-major
6,840.8 km
B*
6.7573e-4
RAAN
263.4328°
Arg perigee
79.3949°
Mean anomaly
280.7117°
Rev number
4,166

§ Raw data

STARLINK-350421 65481U 25195Z   26145.02737756  .00022522  00000+0  67573-3 0  99942 65481  53.1569 263.4328 0000566  79.3949 280.7117 15.34398721 41667

JSON: /api/v1/satellites/65481 · /tle

For live sub-satellite position, see the globe view (requires WebGL).

§ Visibility from observer

Set your observer location to see the next 7 days of passes ≥ 10°. The values pass through the URL so the page stays shareable.

No JS? Fill the form by hand. The geolocation button needs JavaScript.